Regional Weather Roundup
Issued by NWS

Home | Current Version | Previous Version | Text Only | Print | Product List | Glossary On
Versions: 1 2 3 4 5 6 7 8 9 10 11 12 13 14 15 16 17 18 19 20 21 22 23 24 25 26 27 28 29 30 31 32 33 34 35 36 37 38 39 40 41 42 43 44 45 46 47 48 49 50
000
ASUS45 KTFX 240910
RWRMT
MONTANA REGIONAL WEATHER ROUNDUP
NATIONAL WEATHER SERVICE GREAT FALLS MT
300 AM MDT SUN SEP 24 2017

NOTE: "FAIR" INDICATES FEW OR NO CLOUDS BELOW 12000 FEET WITH NO
SIGNIFICANT WEATHER AND/OR OBSTRUCTIONS TO VISIBILITY.

MTZ001>007-043-241000-
WEST OF THE DIVIDE

CITY           SKY/WX    TMP DP  RH WIND       PRES   REMARKS
KALISPELL      PTCLDY    36  36 100 CALM      30.12R
MISSOULA       CLEAR     35  32  88 CALM      30.14S
BUTTE          CLOUDY    33  30  88 SE3       30.12S
MULLAN PASS    CLOUDY    36  33  89 NW5       30.11S
ANACONDA         N/A     30  27  86 W5        30.13R
DEER LODGE       N/A     30  28  93 W3        30.15R
EUREKA           N/A     45  41  87 CALM      30.11S
HAMILTON         N/A     36  32  87 CALM      30.14
LIBBY            N/A     41  39  93 CALM      30.10S
PLAINS           N/A     36  31  82 CALM      30.13S
THOMPSON FALLS   N/A     44  39  82 CALM      30.17R
$$

MTZ008-052>055-241000-
SOUTHWEST MONTANA

CITY           SKY/WX    TMP DP  RH WIND       PRES   REMARKS
BOZEMAN        CLOUDY    41  37  86 SE6       30.10S
DILLON         CLOUDY    38  29  70 SE5       30.09S
W YELLOWSTONE  CLOUDY    36  27  69 MISG      30.05S
ENNIS          CLOUDY    37  30  75 N8        30.12S WCI  31
THREE FORKS      N/A     39  30  70 NW5       30.08S
TWIN BRIDGES     N/A     38  25  60 MISG      30.07
$$

MTZ009-010-012-014-046-048-049-054-241000-
EAST SLOPES AND CENTRAL MONTANA

CITY           SKY/WX    TMP DP  RH WIND       PRES   REMARKS
CUT BANK       CLEAR     32  28  85 NW7       30.09R WCI  26
GREAT FALLS    CLOUDY    35  31  85 SW7       30.10R WCI  29
MALMSTROM AFB  CLOUDY    39  33  80 CALM      30.10S
HELENA         CLEAR     37  32  82 CALM      30.11R
BOWMANS CRNR     N/A     33  28  83 W7        30.09R WCI  27
CHOTEAU          N/A     36  30  80 W6        30.11S WCI  31
FAIRFIELD        N/A     30  28  91 CALM      30.09S
POWER            N/A     32  29  90 W3        30.08S
RAYNESFORD     MOCLDY    35  31  85 CALM      30.11S
ULM            MOCLDY    36  32  84 S3        30.10S
$$

MTZ011-013-016-021-045-047-050-051-241000-
NORTH CENTRAL MONTANA

CITY           SKY/WX    TMP DP  RH WIND       PRES   REMARKS
HAVRE          CLOUDY    41  38  89 CALM      30.10R
LEWISTOWN      CLOUDY    38  38 100 CALM      30.10S
N BAR RANCH    CLOUDY    36  34  93 W5        30.12S
CHINOOK          N/A     37  37 100 E3        30.11S
DENTON           N/A     36  32  87 S7        30.07F WCI  30
GEYSER           N/A     36  30  80 SW10      30.10S WCI  28
JUDITH GAP     MOCLDY    38  37  96 S7        30.09F
WINIFRED       MOCLDY    38  37  97 CALM      30.09S
$$

MTZ017>020-022>027-061-062-241000-
NORTHEAST MONTANA

CITY           SKY/WX    TMP DP  RH WIND       PRES   REMARKS
GLASGOW        CLOUDY    47  40  76 E5        30.11R
JORDAN           N/A     43  40  89 CALM      30.12R
SIDNEY         LGT RAIN  44  43  96 N7        30.11R
WOLF POINT     CLOUDY    46  43  89 CALM      30.13R
MALTA          MOCLDY    36  36 100 CALM      30.12F
PLENTYWOOD       N/A     45  43  93 CALM      30.12S
POPLAR           N/A     45  43  93 CALM      30.13S
SCOBEY           N/A     43  35  73 CALM      30.09F
$$

MTZ028>42-056>058-241000-
SOUTHCENTRAL AND SOUTHEAST MONTANA

CITY           SKY/WX    TMP DP  RH WIND       PRES   REMARKS
BAKER          CLOUDY    43  40  89 N8        30.08S
BILLINGS       MOCLDY    42  39  89 N5        30.10S
LIVINGSTON     CLOUDY    39  35  86 CALM      30.09S
MILES CITY     LGT RAIN  43  41  93 N6        30.10S
BIG TIMBER     CLOUDY    39  37  93 CALM      30.12S
HARLOWTON      CLOUDY    40  38  95 MISG      30.10F
LAUREL           N/A     41  39  93 N6        30.11S
$$

REGIONAL REPORTS...DAKOTAS

CITY           SKY/WX    TMP DP  RH WIND       PRES   REMARKS
WILLISTON      LGT RAIN  45  42  89 NW7       30.11F
MINOT          LGT RAIN  47  46  97 N10       30.04F
DICKINSON      LGT RAIN  44  44 100 N10       30.03R
BEACH          LGT RAIN  41  41 100 N10       30.11S
CROSBY         CLOUDY    43  43 100 N5        30.12F
TIOGA          LGT RAIN  43  43 100 N9        30.10F
BISMARCK       LGT RAIN  49  48  97 N12       29.99F
GRAND FORKS    LGT RAIN  53  53 100 N13       29.94S FOG
FARGO          RAIN      57  56  96 N7        29.88F
BUFFALO SD       N/A     45  44  97 N10       29.97S
$$

REGIONAL REPORTS...WYOMING/IDAHO/WASHINGTON

CITY           SKY/WX    TMP DP  RH WIND       PRES   REMARKS
GILLETTE       CLOUDY    39  39 100 N14       30.05R WCI  31
SHERIDAN       LGT RAIN  40  39  97 NE3       30.09R
BUFFALO WY     FOG       37  35  92 N10       30.07S VSB 1/4 WCI  30
CODY           CLOUDY    37  32  82 N5        30.08F
IDAHO FALLS    PTCLDY    36  31  82 N8        30.00S WCI  30
SALMON         CLOUDY    35  31  85 CALM      30.11S
BOISE          CLEAR     41  34  76 S3        30.02S
SPOKANE        CLOUDY    52  43  71 SW7       30.10S
$$

REGIONAL REPORTS...ALBERTA

CITY           SKY/WX    TMP DP  RH WIND       PRES   REMARKS
EDMONTON       CLOUDY    43  39  87 S5        30.02F
CALGARY        MOCLDY    37  32  81 S7        30.06F
LETHBRIDGE     CLEAR     25  23  93 SW7       30.09S WCI  17
MEDICINE HAT   CLOUDY    43  36  75 N5        30.09S
$$

REGIONAL REPORTS...SASKATCHEWAN

CITY           SKY/WX    TMP DP  RH WIND       PRES   REMARKS
SWIFT CURRENT    N/A     37  36  93 S8        30.11S WCI  31
REGINA         CLOUDY    37  36  93 N2        30.13F
SASKATOON      CLOUDY    45  39  81 S5        30.14F
$$



USA.gov is the U.S. government's official web portal to all federal, state and local government web resources and services.